DAL2126 KDTW-KBNA

Flight info

Callsign DAL2126
Flight time 1h 23m
Altitude 36000
Route BARII3 SINKR JUDDI ULTRA RYYMN3
Aircraft A321/M-SDE3FGHIRWY/LB1

Departure

Time 2026-05-06 17:58
Airport Detroit Metropolitan Wayne County Airport (KDTW)

Arrival

Time 2026-05-06 19:21
Airport Nashville International Airport (KBNA)
Time Latitude Longitude Altitude Speed Heading
2026-05-06 17:29 42.20299 -83.36276 647 ft 0 kts 118°
2026-05-06 17:40 42.20306 -83.36293 646 ft 4 kts 119°
2026-05-06 17:40 42.20318 -83.36324 646 ft 4 kts 105°
2026-05-06 17:40 42.20321 -83.36359 646 ft 4 kts 72°
2026-05-06 17:40 42.20308 -83.36384 646 ft 2 kts 28°
2026-05-06 17:41 42.20303 -83.36387 646 ft 0 kts 28°
2026-05-06 17:44 42.20306 -83.36385 646 ft 3 kts 26°
2026-05-06 17:45 42.20329 -83.36426 648 ft 9 kts 285°
2026-05-06 17:45 42.20310 -83.36485 646 ft 7 kts 212°
2026-05-06 17:45 42.20290 -83.36500 648 ft 1 kts 209°
2026-05-06 17:45 42.20287 -83.36502 646 ft 0 kts 209°
2026-05-06 17:50 42.20274 -83.36512 647 ft 7 kts 209°
2026-05-06 17:51 42.20201 -83.36565 647 ft 14 kts 208°
2026-05-06 17:51 42.20124 -83.36554 648 ft 12 kts 120°
2026-05-06 17:51 42.20109 -83.36454 647 ft 10 kts 101°
2026-05-06 17:51 42.20096 -83.36367 646 ft 9 kts 101°
2026-05-06 17:52 42.20082 -83.36272 646 ft 14 kts 101°
2026-05-06 17:52 42.20068 -83.36116 646 ft 17 kts 91°
2026-05-06 17:52 42.20070 -83.35963 648 ft 16 kts 89°
2026-05-06 17:52 42.20072 -83.35820 646 ft 15 kts 88°
2026-05-06 17:53 42.20075 -83.35669 647 ft 18 kts 88°
2026-05-06 17:53 42.20078 -83.35502 647 ft 17 kts 89°
2026-05-06 17:53 42.20080 -83.35347 647 ft 16 kts 89°
2026-05-06 17:53 42.20131 -83.35237 649 ft 14 kts 30°
2026-05-06 17:54 42.20214 -83.35175 647 ft 13 kts 28°
2026-05-06 17:54 42.20292 -83.35118 649 ft 12 kts 28°
2026-05-06 17:54 42.20365 -83.35065 647 ft 13 kts 28°
2026-05-06 17:54 42.20484 -83.35006 647 ft 18 kts 349°
2026-05-06 17:55 42.20598 -83.34974 648 ft 16 kts 27°
2026-05-06 17:55 42.20685 -83.34914 647 ft 12 kts 13°
2026-05-06 17:55 42.20741 -83.34975 648 ft 11 kts 298°
2026-05-06 17:55 42.20774 -83.35058 647 ft 10 kts 298°
2026-05-06 17:56 42.20823 -83.35095 644 ft 9 kts 22°
2026-05-06 17:56 42.20836 -83.35085 644 ft 0 kts 30°
2026-05-06 17:58 42.20923 -83.35019 645 ft 45 kts 29°
2026-05-06 17:58 42.21416 -83.34657 646 ft 113 kts 28°
2026-05-06 17:58 42.22267 -83.34030 665 ft 161 kts 26°
2026-05-06 17:58 42.23228 -83.33310 1328 ft 156 kts 25°
2026-05-06 17:59 42.24143 -83.32515 2009 ft 159 kts 40°
2026-05-06 17:59 42.24812 -83.31283 2612 ft 170 kts 59°
2026-05-06 17:59 42.25390 -83.29776 2831 ft 192 kts 59°
2026-05-06 17:59 42.26036 -83.28089 3027 ft 213 kts 60°
2026-05-06 18:00 42.26740 -83.26246 3176 ft 235 kts 60°
2026-05-06 18:00 42.27401 -83.24137 3615 ft 250 kts 76°
2026-05-06 18:00 42.27510 -83.21780 4416 ft 255 kts 96°
2026-05-06 18:00 42.26990 -83.19397 4866 ft 275 kts 119°
2026-05-06 18:01 42.25986 -83.17165 5554 ft 282 kts 122°
2026-05-06 18:01 42.24955 -83.14899 6327 ft 285 kts 122°
2026-05-06 18:01 42.23914 -83.12588 6845 ft 292 kts 122°
2026-05-06 18:01 42.22606 -83.10508 7509 ft 292 kts 144°
2026-05-06 18:02 42.20809 -83.09302 8251 ft 290 kts 170°
2026-05-06 18:02 42.18822 -83.09214 8974 ft 285 kts 195°
2026-05-06 18:02 42.16981 -83.10133 9707 ft 282 kts 209°
2026-05-06 18:02 42.15198 -83.11267 10300 ft 291 kts 210°
2026-05-06 18:03 42.13295 -83.12481 10462 ft 313 kts 209°
2026-05-06 18:03 42.11254 -83.13782 10593 ft 335 kts 209°
2026-05-06 18:03 42.09101 -83.15146 10971 ft 346 kts 208°
2026-05-06 18:03 42.06903 -83.16520 11634 ft 349 kts 208°
2026-05-06 18:04 42.04700 -83.17892 12373 ft 349 kts 209°
2026-05-06 18:04 42.02494 -83.19266 13087 ft 349 kts 209°
2026-05-06 18:04 42.00299 -83.20677 13709 ft 350 kts 213°
2026-05-06 18:04 41.98276 -83.22480 14317 ft 348 kts 223°
2026-05-06 18:05 41.96526 -83.24679 15181 ft 336 kts 229°
2026-05-06 18:05 41.94914 -83.26845 16386 ft 322 kts 229°
2026-05-06 18:05 41.93347 -83.28920 17161 ft 320 kts 228°
2026-05-06 18:05 41.91733 -83.31047 17793 ft 321 kts 229°
2026-05-06 18:06 41.90155 -83.33126 18360 ft 323 kts 229°
2026-05-06 18:06 41.88549 -83.35244 18926 ft 325 kts 229°
2026-05-06 18:06 41.86935 -83.37377 19479 ft 327 kts 229°
2026-05-06 18:06 41.85311 -83.39523 20010 ft 329 kts 229°
2026-05-06 18:07 41.83675 -83.41683 20532 ft 331 kts 229°
2026-05-06 18:07 41.81920 -83.43703 21039 ft 338 kts 218°
2026-05-06 18:07 41.79932 -83.45242 21518 ft 342 kts 216°
2026-05-06 18:07 41.77841 -83.46813 22008 ft 344 kts 215°
2026-05-06 18:08 41.75743 -83.48376 22406 ft 348 kts 215°
2026-05-06 18:08 41.73598 -83.49977 22522 ft 359 kts 215°
2026-05-06 18:08 41.71381 -83.51635 22667 ft 369 kts 215°
2026-05-06 18:08 41.69106 -83.53334 22782 ft 379 kts 215°
2026-05-06 18:09 41.66776 -83.55075 22976 ft 387 kts 215°
2026-05-06 18:09 41.64414 -83.56835 23303 ft 390 kts 215°
2026-05-06 18:09 41.62036 -83.58598 23683 ft 392 kts 214°
2026-05-06 18:09 41.59647 -83.60366 24072 ft 393 kts 214°
2026-05-06 18:10 41.57248 -83.62141 24439 ft 396 kts 214°
2026-05-06 18:10 41.54837 -83.63924 24813 ft 397 kts 215°
2026-05-06 18:10 41.52445 -83.65694 25157 ft 399 kts 215°
2026-05-06 18:10 41.50016 -83.67491 25516 ft 400 kts 215°
2026-05-06 18:11 41.47573 -83.69302 25849 ft 402 kts 215°
2026-05-06 18:11 41.45132 -83.71110 26182 ft 403 kts 216°
2026-05-06 18:11 41.42635 -83.72957 26484 ft 405 kts 216°
2026-05-06 18:11 41.40198 -83.74754 26805 ft 407 kts 216°
2026-05-06 18:12 41.37715 -83.76582 27103 ft 409 kts 216°
2026-05-06 18:12 41.35222 -83.78421 27429 ft 410 kts 216°
2026-05-06 18:12 41.32726 -83.80257 27745 ft 411 kts 216°
2026-05-06 18:12 41.30216 -83.82099 28013 ft 412 kts 216°
2026-05-06 18:13 41.27712 -83.83940 28378 ft 411 kts 216°
2026-05-06 18:13 41.25216 -83.85769 28780 ft 409 kts 216°
2026-05-06 18:13 41.22732 -83.87589 29148 ft 408 kts 217°
2026-05-06 18:13 41.20251 -83.89409 29501 ft 406 kts 217°
2026-05-06 18:14 41.17782 -83.91216 29874 ft 404 kts 217°
2026-05-06 18:14 41.15332 -83.93008 30294 ft 400 kts 217°
2026-05-06 18:14 41.12912 -83.94773 30844 ft 393 kts 218°
2026-05-06 18:14 41.10538 -83.96499 31402 ft 385 kts 219°
2026-05-06 18:15 41.08204 -83.98196 31871 ft 381 kts 220°
2026-05-06 18:15 41.05887 -83.99886 32267 ft 378 kts 220°
2026-05-06 18:15 41.03594 -84.01563 32650 ft 376 kts 220°
2026-05-06 18:15 41.01306 -84.03234 32985 ft 374 kts 221°
2026-05-06 18:16 40.99033 -84.04893 33323 ft 373 kts 221°
2026-05-06 18:16 40.96764 -84.06545 33637 ft 372 kts 221°
2026-05-06 18:16 40.94497 -84.08191 33926 ft 371 kts 221°
2026-05-06 18:16 40.92239 -84.09827 34240 ft 370 kts 221°
2026-05-06 18:17 40.89989 -84.11460 34531 ft 368 kts 221°
2026-05-06 18:17 40.87723 -84.13056 34789 ft 371 kts 220°
2026-05-06 18:17 40.85389 -84.14549 35042 ft 374 kts 218°
2026-05-06 18:17 40.83014 -84.15970 35299 ft 375 kts 217°
2026-05-06 18:18 40.80626 -84.17357 35540 ft 375 kts 217°
2026-05-06 18:18 40.78268 -84.18720 35781 ft 375 kts 217°
2026-05-06 18:18 40.75886 -84.20110 35960 ft 374 kts 218°
2026-05-06 18:18 40.73512 -84.21514 36007 ft 373 kts 218°
2026-05-06 18:19 40.68806 -84.24327 36007 ft 371 kts 218°
2026-05-06 18:19 40.64114 -84.27153 36009 ft 370 kts 218°
2026-05-06 18:20 40.59434 -84.29974 36017 ft 370 kts 218°
2026-05-06 18:20 40.54742 -84.32788 36017 ft 371 kts 218°
2026-05-06 18:21 40.50036 -84.35592 36018 ft 371 kts 218°
2026-05-06 18:21 40.45436 -84.38548 36018 ft 358 kts 226°
2026-05-06 18:22 40.43512 -84.40520 36020 ft 345 kts 234°
2026-05-06 18:22 40.42376 -84.41964 36020 ft 344 kts 234°
2026-05-06 18:22 40.38931 -84.46326 36019 ft 344 kts 234°
2026-05-06 18:23 40.35470 -84.50663 36019 ft 345 kts 234°
2026-05-06 18:23 40.32001 -84.54997 36020 ft 345 kts 234°
2026-05-06 18:24 40.28532 -84.59332 36019 ft 345 kts 234°
2026-05-06 18:24 40.25060 -84.63666 36019 ft 345 kts 234°
2026-05-06 18:25 40.21589 -84.67995 36020 ft 345 kts 234°
2026-05-06 18:25 40.18114 -84.72319 36024 ft 345 kts 234°
2026-05-06 18:26 40.14637 -84.76640 36026 ft 344 kts 233°
2026-05-06 18:26 40.11190 -84.80910 36026 ft 344 kts 233°
2026-05-06 18:27 40.07727 -84.85199 36025 ft 343 kts 233°
2026-05-06 18:27 40.04263 -84.89490 36028 ft 343 kts 233°
2026-05-06 18:28 40.00803 -84.93767 36029 ft 343 kts 233°
2026-05-06 18:28 39.97337 -84.98039 36034 ft 342 kts 234°
2026-05-06 18:29 39.93881 -85.02294 36035 ft 341 kts 234°
2026-05-06 18:29 39.90433 -85.06540 36045 ft 340 kts 234°
2026-05-06 18:30 39.86992 -85.10772 36035 ft 340 kts 234°
2026-05-06 18:30 39.83552 -85.14988 36034 ft 339 kts 233°
2026-05-06 18:31 39.80117 -85.19197 36032 ft 339 kts 234°
2026-05-06 18:31 39.76683 -85.23399 36030 ft 339 kts 234°
2026-05-06 18:32 39.73264 -85.27575 36031 ft 339 kts 234°
2026-05-06 18:32 39.69829 -85.31768 36031 ft 339 kts 234°
2026-05-06 18:33 39.66392 -85.35954 36031 ft 339 kts 234°
2026-05-06 18:33 39.62951 -85.40134 36029 ft 338 kts 234°
2026-05-06 18:34 39.59513 -85.44306 36029 ft 339 kts 234°
2026-05-06 18:34 39.56072 -85.48474 36027 ft 339 kts 234°
2026-05-06 18:35 39.52633 -85.52636 36024 ft 338 kts 234°
2026-05-06 18:35 39.49194 -85.56800 36023 ft 338 kts 234°
2026-05-06 18:36 39.45751 -85.60958 36024 ft 339 kts 233°
2026-05-06 18:36 39.42303 -85.65112 36024 ft 339 kts 233°
2026-05-06 18:37 39.38854 -85.69265 36026 ft 339 kts 233°
2026-05-06 18:37 39.35427 -85.73384 36029 ft 339 kts 233°
2026-05-06 18:38 39.31975 -85.77527 36030 ft 339 kts 233°
2026-05-06 18:38 39.28525 -85.81661 36031 ft 338 kts 233°
2026-05-06 18:39 39.25073 -85.85801 36032 ft 339 kts 233°
2026-05-06 18:40 39.19886 -85.92005 36034 ft 339 kts 233°
2026-05-06 18:40 39.16418 -85.96145 36033 ft 340 kts 233°
2026-05-06 18:41 39.12941 -86.00277 36038 ft 340 kts 233°
2026-05-06 18:41 39.09467 -86.04404 36049 ft 340 kts 233°
2026-05-06 18:42 39.06001 -86.08531 36055 ft 339 kts 233°
2026-05-06 18:42 39.02533 -86.12651 36036 ft 339 kts 233°
2026-05-06 18:43 38.99064 -86.16763 36035 ft 340 kts 233°
2026-05-06 18:43 38.95605 -86.20856 36036 ft 340 kts 233°
2026-05-06 18:44 38.92123 -86.24965 36035 ft 340 kts 233°
2026-05-06 18:44 38.88644 -86.29068 36035 ft 340 kts 233°
2026-05-06 18:45 38.85161 -86.33175 36047 ft 341 kts 233°
2026-05-06 18:45 38.81668 -86.37285 36037 ft 341 kts 233°
2026-05-06 18:46 38.78179 -86.41385 36038 ft 341 kts 233°
2026-05-06 18:46 38.74150 -86.44866 36036 ft 369 kts 216°
2026-05-06 18:47 38.69265 -86.47129 36035 ft 374 kts 215°
2026-05-06 18:47 38.64398 -86.49362 36035 ft 374 kts 215°
2026-05-06 18:48 38.59473 -86.51640 36036 ft 374 kts 215°
2026-05-06 18:48 38.54582 -86.53901 36045 ft 374 kts 215°
2026-05-06 18:49 38.49719 -86.56144 36054 ft 374 kts 215°
2026-05-06 18:49 38.44818 -86.58402 36051 ft 374 kts 215°
2026-05-06 18:50 38.39910 -86.60645 36055 ft 375 kts 215°
2026-05-06 18:50 38.35004 -86.62894 36058 ft 375 kts 215°
2026-05-06 18:51 38.30099 -86.65145 36053 ft 375 kts 215°
2026-05-06 18:51 38.25189 -86.67394 36054 ft 375 kts 215°
2026-05-06 18:52 38.20276 -86.69647 36052 ft 375 kts 214°
2026-05-06 18:52 38.15363 -86.71891 36051 ft 375 kts 215°
2026-05-06 18:53 38.10450 -86.74126 36051 ft 375 kts 215°
2026-05-06 18:53 38.05543 -86.76362 36047 ft 375 kts 215°
2026-05-06 18:54 38.00626 -86.78600 36049 ft 375 kts 215°
2026-05-06 18:54 37.95714 -86.80827 35293 ft 375 kts 214°
2026-05-06 18:54 37.93247 -86.81947 34558 ft 377 kts 214°
2026-05-06 18:55 37.90801 -86.83056 33886 ft 378 kts 214°
2026-05-06 18:55 37.88318 -86.84179 33175 ft 380 kts 214°
2026-05-06 18:55 37.85820 -86.85310 32419 ft 382 kts 213°
2026-05-06 18:55 37.83308 -86.86449 31607 ft 385 kts 213°
2026-05-06 18:56 37.80773 -86.87600 30764 ft 389 kts 212°
2026-05-06 18:56 37.78213 -86.88760 29884 ft 393 kts 211°
2026-05-06 18:56 37.75625 -86.89929 28986 ft 397 kts 211°
2026-05-06 18:56 37.73011 -86.91108 28023 ft 401 kts 211°
2026-05-06 18:57 37.70370 -86.92294 27067 ft 405 kts 210°
2026-05-06 18:57 37.67701 -86.93489 26181 ft 407 kts 210°
2026-05-06 18:57 37.65036 -86.94675 25505 ft 404 kts 210°
2026-05-06 18:57 37.62407 -86.95842 24807 ft 400 kts 210°
2026-05-06 18:58 37.59794 -86.97009 24110 ft 396 kts 210°
2026-05-06 18:58 37.57212 -86.98169 23423 ft 393 kts 210°
2026-05-06 18:58 37.54643 -86.99326 23117 ft 392 kts 210°
2026-05-06 18:58 37.52070 -87.00487 23011 ft 394 kts 210°
2026-05-06 18:59 37.49475 -87.01656 23042 ft 396 kts 210°
2026-05-06 18:59 37.46874 -87.02820 23045 ft 397 kts 209°
2026-05-06 18:59 37.44274 -87.03978 23045 ft 397 kts 209°
2026-05-06 18:59 37.41665 -87.05137 23043 ft 397 kts 209°
2026-05-06 19:00 37.39065 -87.06297 23046 ft 397 kts 210°
2026-05-06 19:00 37.36430 -87.07373 23045 ft 404 kts 204°
2026-05-06 19:00 37.33613 -87.07924 23053 ft 418 kts 194°
2026-05-06 19:00 37.31677 -87.08008 23056 ft 421 kts 193°
2026-05-06 19:01 37.27756 -87.08147 23055 ft 421 kts 193°
2026-05-06 19:01 37.24865 -87.08249 23052 ft 421 kts 193°
2026-05-06 19:01 37.21931 -87.08351 23054 ft 422 kts 193°
2026-05-06 19:01 37.18997 -87.08458 23054 ft 422 kts 193°
2026-05-06 19:02 37.16066 -87.08563 23053 ft 422 kts 193°
2026-05-06 19:02 37.13129 -87.08671 23053 ft 421 kts 193°
2026-05-06 19:02 37.10202 -87.08778 23055 ft 422 kts 193°
2026-05-06 19:02 37.07266 -87.08886 22999 ft 423 kts 193°
2026-05-06 19:03 37.04330 -87.08995 22362 ft 420 kts 193°
2026-05-06 19:03 37.01421 -87.09097 21681 ft 416 kts 192°
2026-05-06 19:03 36.98542 -87.09199 21023 ft 412 kts 192°
2026-05-06 19:03 36.95699 -87.09301 20382 ft 407 kts 192°
2026-05-06 19:04 36.92880 -87.09407 19762 ft 402 kts 192°
2026-05-06 19:04 36.90115 -87.09508 19445 ft 390 kts 192°
2026-05-06 19:04 36.87462 -87.09590 19316 ft 374 kts 192°
2026-05-06 19:04 36.84914 -87.09664 19155 ft 360 kts 193°
2026-05-06 19:05 36.82409 -87.09486 18866 ft 366 kts 182°
2026-05-06 19:05 36.79910 -87.08655 18618 ft 379 kts 170°
2026-05-06 19:05 36.77490 -87.07250 18269 ft 385 kts 165°
2026-05-06 19:05 36.75093 -87.05778 17843 ft 383 kts 165°
2026-05-06 19:06 36.72718 -87.04304 17425 ft 380 kts 165°
2026-05-06 19:06 36.70356 -87.02842 16993 ft 378 kts 164°
2026-05-06 19:06 36.68008 -87.01396 16555 ft 375 kts 164°
2026-05-06 19:06 36.65679 -86.99971 16130 ft 375 kts 164°
2026-05-06 19:07 36.63326 -86.98543 15845 ft 374 kts 164°
2026-05-06 19:07 36.61743 -86.97577 15687 ft 392 kts 164°
2026-05-06 19:07 36.58430 -86.95575 15343 ft 391 kts 163°
2026-05-06 19:07 36.56024 -86.94100 15084 ft 380 kts 163°
2026-05-06 19:08 36.53684 -86.92654 14832 ft 371 kts 163°
2026-05-06 19:08 36.51398 -86.91247 14585 ft 363 kts 163°
2026-05-06 19:08 36.49141 -86.89871 14323 ft 359 kts 163°
2026-05-06 19:08 36.46909 -86.88522 13899 ft 355 kts 163°
2026-05-06 19:09 36.44719 -86.87201 13435 ft 354 kts 163°
2026-05-06 19:09 36.42508 -86.85868 12930 ft 353 kts 163°
2026-05-06 19:09 36.40302 -86.84536 12436 ft 352 kts 163°
2026-05-06 19:09 36.38136 -86.83219 12238 ft 337 kts 162°
2026-05-06 19:10 36.36114 -86.81972 11884 ft 316 kts 163°
2026-05-06 19:10 36.34163 -86.80781 11518 ft 310 kts 163°
2026-05-06 19:10 36.32235 -86.79619 11263 ft 305 kts 163°
2026-05-06 19:10 36.30327 -86.78476 10892 ft 306 kts 163°
2026-05-06 19:11 36.28397 -86.77325 10484 ft 305 kts 162°
2026-05-06 19:11 36.26516 -86.76205 10354 ft 292 kts 166°
2026-05-06 19:11 36.24644 -86.75548 10222 ft 270 kts 181°
2026-05-06 19:11 36.22843 -86.75473 9875 ft 257 kts 193°
2026-05-06 19:12 36.21134 -86.75918 9458 ft 249 kts 204°
2026-05-06 19:12 36.19513 -86.76552 9198 ft 235 kts 204°
2026-05-06 19:12 36.17999 -86.77122 8813 ft 225 kts 203°
2026-05-06 19:12 36.17008 -86.77489 8413 ft 223 kts 202°
2026-05-06 19:13 36.15052 -86.78197 8100 ft 216 kts 202°
2026-05-06 19:13 36.13610 -86.78711 8008 ft 215 kts 202°
2026-05-06 19:13 36.12665 -86.79045 7932 ft 212 kts 201°
2026-05-06 19:13 36.11251 -86.79523 7558 ft 211 kts 202°
2026-05-06 19:14 36.09835 -86.80019 7178 ft 211 kts 202°
2026-05-06 19:14 36.08432 -86.80505 6826 ft 209 kts 201°
2026-05-06 19:14 36.07047 -86.80987 6536 ft 204 kts 201°
2026-05-06 19:14 36.05687 -86.81469 6208 ft 202 kts 201°
2026-05-06 19:15 36.04342 -86.81957 5863 ft 201 kts 201°
2026-05-06 19:15 36.03003 -86.82449 5522 ft 201 kts 201°
2026-05-06 19:15 36.01666 -86.82959 5164 ft 201 kts 200°
2026-05-06 19:15 36.00328 -86.83492 4788 ft 203 kts 202°
2026-05-06 19:16 35.99009 -86.84028 4601 ft 194 kts 200°
2026-05-06 19:16 35.97696 -86.84027 4391 ft 191 kts 165°
2026-05-06 19:16 35.96659 -86.83003 4045 ft 199 kts 125°
2026-05-06 19:16 35.96262 -86.81356 3684 ft 202 kts 99°
2026-05-06 19:17 35.96129 -86.79638 3349 ft 200 kts 96°
2026-05-06 19:17 35.96022 -86.77944 3009 ft 197 kts 95°
2026-05-06 19:17 35.95998 -86.76275 2671 ft 194 kts 77°
2026-05-06 19:17 35.96672 -86.74894 2347 ft 189 kts 39°
2026-05-06 19:18 35.97811 -86.74112 2056 ft 187 kts 20°
2026-05-06 19:18 35.99052 -86.73633 2002 ft 188 kts 19°
2026-05-06 19:18 36.00303 -86.73140 2008 ft 189 kts 19°
2026-05-06 19:18 36.01560 -86.72647 2012 ft 190 kts 18°
2026-05-06 19:19 36.02798 -86.72161 2028 ft 187 kts 17°
2026-05-06 19:19 36.03985 -86.71696 2028 ft 172 kts 17°
2026-05-06 19:19 36.05062 -86.71275 1941 ft 155 kts 17°
2026-05-06 19:19 36.06056 -86.70886 1778 ft 146 kts 17°
2026-05-06 19:20 36.07013 -86.70508 1600 ft 143 kts 17°
2026-05-06 19:20 36.07960 -86.70141 1411 ft 142 kts 17°
2026-05-06 19:20 36.08903 -86.69771 1223 ft 142 kts 17°
2026-05-06 19:20 36.09838 -86.69400 1032 ft 141 kts 17°
2026-05-06 19:21 36.10771 -86.69037 842 ft 140 kts 17°
2026-05-06 19:21 36.11701 -86.68676 643 ft 140 kts 17°
2026-05-06 19:21 36.12574 -86.68332 574 ft 112 kts 18°
2026-05-06 19:21 36.13118 -86.68119 576 ft 45 kts 19°
2026-05-06 19:22 36.13271 -86.68030 578 ft 18 kts 67°
2026-05-06 19:22 36.13318 -86.67906 573 ft 11 kts 88°
2026-05-06 19:22 36.13267 -86.67881 572 ft 9 kts 185°
2026-05-06 19:22 36.13187 -86.67906 575 ft 16 kts 197°
2026-05-06 19:23 36.13088 -86.67914 577 ft 14 kts 143°
2026-05-06 19:23 36.13023 -86.67833 576 ft 13 kts 134°
2026-05-06 19:23 36.12958 -86.67750 571 ft 14 kts 133°
2026-05-06 19:23 36.12893 -86.67663 575 ft 13 kts 133°
2026-05-06 19:24 36.12834 -86.67585 573 ft 11 kts 133°
2026-05-06 19:24 36.12785 -86.67520 577 ft 9 kts 133°
2026-05-06 19:24 36.12744 -86.67468 576 ft 8 kts 133°
2026-05-06 19:24 36.12712 -86.67425 575 ft 6 kts 133°
2026-05-06 19:25 36.12690 -86.67395 576 ft 7 kts 128°
2026-05-06 19:25 36.12726 -86.67390 582 ft 14 kts
2026-05-06 19:25 36.12807 -86.67327 571 ft 10 kts 43°
2026-05-06 19:25 36.12864 -86.67265 574 ft 11 kts 31°
2026-05-06 19:26 36.12933 -86.67239 572 ft 10 kts 32°
2026-05-06 19:26 36.12984 -86.67180 575 ft 10 kts 44°
2026-05-06 19:26 36.13031 -86.67145 569 ft 7 kts 30°
2026-05-06 19:26 36.13052 -86.67097 569 ft 6 kts 81°
2026-05-06 19:27 36.13056 -86.67066 575 ft 1 kts 82°
2026-05-06 19:27 36.13057 -86.67057 569 ft 1 kts 82°
2026-05-06 19:27 36.13058 -86.67050 569 ft 0 kts 82°
2026-05-06 19:27 36.13058 -86.67045 569 ft 0 kts 82°